ONEWEB-0347 (49280 NORAD) Tracking and Keplerian Element Data

This shows tracking and keplerian element data for the satellite.

Feedback or suggestion? Click here.




ElementValue
Catalog49280
NameONEWEB-0347
Epoch Orbit355
Epoch Day339.91667824
Epoch Year2021
RAAN275.0582
Inclination87.2027
Eccentricity0.0012198
Argument of Perigee95.4556
Mean Anonmoly253.4731
Mean Motion14.88411557
Decay Rate-0.00051834
L11 49280U 21090B 21339.91667824 -.00051834 00000+0 -56372-2 0 9993
L22 49280 87.2027 275.0582 0012198 95.4556 253.4731 14.88411557 3557

Live tracking and technical data element details for ONEWEB-0347 (NORAD 49280). ONEWEB-0347 can be tracked NOW for your location showing map with azimuth and elevation plus other details from your city location.

Track the satellite on the map from your city or location and see movement details for azimuth, elevation, latitude, longitude, range, height, and movement on the map or in text.







IsCatalogInMostPopularTable: catalog: 49280, numindb: 13
Update: records affected: 1



GetName: 49280 ONEWEB-0347

Hit Count: updated at: Mon, 06 Dec 2021 15:48:49 GMT